Вернуться в каталог

TITAN 3C TRANSTAGE R/B

АктивенMEO
NORAD 11623·ROCKET BODY·🇺🇸 United States

Запущен Nov 21, 1979 с Cape Canaveral Space Force Station

Loading…

Ближайшие Пролёты (ближайшие 24 часа)

TLE

СвежийSource: Space-Track

Эпоха: Sep 14, 2026, 12:17 UTC

1 11623U 79098C   26257.51241002 -.00000220  00000-0  00000-0 0  9998
2 11623   9.9952 304.9914 0295381  79.6613 338.3795  0.95319348123443

Отслеживайте TITAN 3C TRANSTAGE R/B в реальном времени с AllMySat

Download on the App Store